[TLELIST] Archives

 

[list_settings.list_name] Current TLEs

March 19th 2013 PDT

HST 1 20580U 90037B 13078.17673970 .00001514 00000-0 96477-4 0 1982 2 20580 028.4694 142.7824 0003439 107.3703 281.1672 15.03376367 56131 ISS (ZARYA) 1 25544U 98067A 13078.39914318 .00016593 00000-0 26787-3 0 4360 2 25544 051.6472 194.1233 0012553 033.0131 042.6751 15.52943314820762 CXO 1 25867U 99040B 13080.64045963 .00000383 00000-0 00000+0 0 8755 2 25867 074.8462 345.0399 8629406 277.8180 000.2996 00.37799415 10206 ____________________________________________________________________ These 2-Line ...Continue Reading

[list_settings.list_name] Current TLEs

March 18th 2013 PDT

HST 1 20580U 90037B 13076.60510587 .00002041 00000-0 13431-3 0 1975 2 20580 028.4694 153.0805 0003511 091.2419 054.6021 15.03374692 55905 ISS (ZARYA) 1 25544U 98067A 13077.43515912 .00015371 00000-0 24909-3 0 4302 2 25544 051.6473 198.9196 0012403 029.5958 053.3286 15.52905812820611 CXO 1 25867U 99040B 13077.99693006 .00000214 00000-0 00000+0 0 8748 2 25867 074.8185 345.2350 8632010 277.8291 000.4056 00.37800851 10199 ____________________________________________________________________ These 2-Line ...Continue Reading

[list_settings.list_name] Current TLEs

March 17th 2013 PDT

HST 1 20580U 90037B 13075.53779647 .00002045 00000-0 13464-3 0 1969 2 20580 028.4694 160.0747 0003530 080.5840 037.4519 15.03369204 55744 ISS (ZARYA) 1 25544U 98067A 13076.39785744 .00004254 00000-0 74614-4 0 4237 2 25544 051.6462 204.0863 0012793 023.4034 016.7406 15.52867101820456 CXO 1 25867U 99040B 13077.99693006 .00000214 00000-0 00000+0 0 8748 2 25867 074.8185 345.2350 8632010 277.8291 000.4056 00.37800851 10199 ____________________________________________________________________ These 2-Line ...Continue Reading

[list_settings.list_name] Current TLEs

March 16th 2013 PDT

HST 1 20580U 90037B 13074.47122366 .00002061 00000-0 13583-3 0 1950 2 20580 028.4694 167.0635 0003549 069.9754 024.2699 15.03364301 55579 ISS (ZARYA) 1 25544U 98067A 13075.43916069 .00011186 00000-0 18378-3 0 4176 2 25544 051.6509 208.8469 0013201 021.0683 056.1275 15.52841651820309 CXO 1 25867U 99040B 13075.35439774 .00000021 00000-0 00000+0 0 8731 2 25867 074.8031 345.4111 8632902 277.8478 000.6390 00.37801691 10188 ____________________________________________________________________ These 2-Line ...Continue Reading

[list_settings.list_name] Current TLEs

March 15th 2013 PDT

HST 1 20580U 90037B 13072.68836264 .00002006 00000-0 13193-3 0 1945 2 20580 028.4693 178.7454 0003556 052.1934 094.0182 15.03356816 55314 ISS (ZARYA) 1 25544U 98067A 13074.41299936 .00011427 00000-0 18785-3 0 4091 2 25544 051.6472 213.9553 0012737 018.2206 078.7819 15.52807611820145 CXO 1 25867U 99040B 13075.35439774 .00000021 00000-0 00000+0 0 8731 2 25867 074.8031 345.4111 8632902 277.8478 000.6390 00.37801691 10188 ____________________________________________________________________ These 2-Line ...Continue Reading

[list_settings.list_name] Current TLEs

March 14th 2013 PDT

HST 1 20580U 90037B 13072.68836264 .00002006 00000-0 13193-3 0 1945 2 20580 028.4693 178.7454 0003556 052.1934 094.0182 15.03356816 55314 ISS (ZARYA) 1 25544U 98067A 13073.24866163 .00013124 00000-0 21477-3 0 4024 2 25544 051.6468 219.7469 0012289 014.4196 049.5851 15.52787388819966 CXO 1 25867U 99040B 13075.35439774 .00000021 00000-0 00000+0 0 8731 2 25867 074.8031 345.4111 8632902 277.8478 000.6390 00.37801691 10188 ____________________________________________________________________ These 2-Line ...Continue Reading

[list_settings.list_name] Current TLEs

March 13th 2013 PDT

HST 1 20580U 90037B 13071.48317895 .00002017 00000-0 13273-3 0 1936 2 20580 028.4694 186.6427 0003555 040.3856 050.4252 15.03351681 55122 ISS (ZARYA) 1 25544U 98067A 13072.47790162 .00012655 00000-0 20754-3 0 3959 2 25544 051.6470 223.5790 0012269 012.0046 060.6020 15.52764988819845 CXO 1 25867U 99040B 13072.70861239 -.00000053 00000-0 00000+0 0 8716 2 25867 074.7975 345.5509 8635501 277.8862 000.4384 00.37801920 10176 ____________________________________________________________________ These 2-Line ...Continue Reading

[list_settings.list_name] Current TLEs

March 12th 2013 PDT

HST 1 20580U 90037B 13069.76766105 .00002019 00000-0 13285-3 0 1920 2 20580 028.4694 197.8831 0003498 023.0766 124.9535 15.03345727 54875 ISS (ZARYA) 1 25544U 98067A 13071.45251501 .00011718 00000-0 19298-3 0 3887 2 25544 051.6468 228.6800 0012155 007.8459 089.1412 15.52734045819688 CXO 1 25867U 99040B 13072.70861239 -.00000053 00000-0 00000+0 0 8716 2 25867 074.7975 345.5509 8635501 277.8862 000.4384 00.37801920 10176 ____________________________________________________________________ These 2-Line ...Continue Reading

[list_settings.list_name] Current TLEs

March 11th 2013 PDT

HST 1 20580U 90037B 13069.76766105 .00002019 00000-0 13285-3 0 1920 2 20580 028.4694 197.8831 0003498 023.0766 124.9535 15.03345727 54875 ISS (ZARYA) 1 25544U 98067A 13070.47962066 .00011288 00000-0 18637-3 0 3836 2 25544 051.6472 233.5204 0011902 004.6321 050.4649 15.52708251819535 CXO 1 25867U 99040B 13072.70861239 -.00000053 00000-0 00000+0 0 8716 2 25867 074.7975 345.5509 8635501 277.8862 000.4384 00.37801920 10176 ____________________________________________________________________ These 2-Line ...Continue Reading

[list_settings.list_name] Current TLEs

March 10th 2013 PDT

HST 1 20580U 90037B 13068.56002604 .00001980 00000-0 13007-3 0 1911 2 20580 028.4695 205.7962 0003454 010.7447 068.6333 15.03341762 54685 ISS (ZARYA) 1 25544U 98067A 13069.45683453 .00011052 00000-0 18281-3 0 3768 2 25544 051.6474 238.6079 0011859 000.9250 093.3129 15.52683517819372 CXO 1 25867U 99040B 13070.06437859 .00000099 00000-0 00000+0 0 8696 2 25867 074.7823 345.7089 8640863 277.9030 000.5169 00.37806008 10161 ____________________________________________________________________ These 2-Line ...Continue Reading
  • This mailing list is a public mailing list - anyone may join or leave, at any time.
  • This mailing list is announce-only.

International Space Station (ISS) / Hubble Space Telescope (HST) / Chandra X-Ray Observatory Orbital Data via EMAIL

Privacy Policy:

Private list